D3121 Weather Reports


Display with metric or nautical units.
time (UTC)temp
F
wind
direction
speed
MPH
gust
MPH
rain 1hr
in
rain 24hr
in
rain mn
in
humidity
%
barometer
mb
20260502213116 46 23 3.0 4.0 0.00 0.31 0.31 91 1008.8
20260502212137 46 23 3.0 4.0 0.00 0.31 0.31 91 1008.9
20260502211117 46 23 2.0 3.0 0.00 0.31 0.31 92 1008.9
20260502210117 46 23 2.0 2.0 0.01 0.31 0.31 92 1008.8
20260502205117 45 0 1.0 1.0 0.02 0.31 0.31 93 1008.8
20260502204117 45 23 2.0 2.0 0.03 0.31 0.31 93 1008.8
20260502203116 45 23 3.0 5.0 0.03 0.31 0.31 93 1008.8
20260502202117 45 0.0 1.0 0.04 0.31 0.31 92 1008.9
20260502201117 45 23 2.0 3.0 0.06 0.31 0.31 92 1008.9
20260502200117 45 23 4.0 4.0 0.06 0.30 0.30 91 1009.0
20260502195116 46 135 1.0 2.0 0.05 0.29 0.29 91 1009.2
20260502194117 46 0.0 0.0 0.04 0.28 0.28 92 1009.3
20260502193118 46 23 2.0 3.0 0.04 0.28 0.28 91 1009.2
20260502192117 46 180 1.0 1.0 0.03 0.27 0.27 91 1009.3
20260502191116 46 158 7.0 8.0 0.01 0.25 0.25 89 1009.1
20260502190117 47 158 9.0 10.0 0.00 0.24 0.24 89 1008.9
20260502185117 47 158 8.0 8.0 0.00 0.24 0.24 88 1009.0
20260502184117 47 158 4.0 5.0 0.00 0.24 0.24 88 1009.2
20260502183116 46 158 1.0 2.0 0.00 0.24 0.24 87 1009.3
20260502182117 46 158 3.0 4.0 0.00 0.24 0.24 88 1009.3
20260502181117 46 135 2.0 4.0 0.01 0.24 0.24 87 1009.3
20260502180117 45 158 3.0 4.0 0.05 0.24 0.24 87 1009.5
20260502170117 45 0 1.0 1.0 0.01 0.19 0.19 93 1009.7
20260502164117 44 158 8.0 9.0 0.00 0.18 0.18 93 1009.5
20260502163117 44 113 4.0 6.0 0.00 0.18 0.18 94 1009.4
20260502162116 44 135 5.0 6.0 0.01 0.18 0.18 93 1009.6
20260502161117 44 135 5.0 6.0 0.01 0.18 0.18 93 1009.7
20260502160117 44 113 4.0 5.0 0.03 0.18 0.18 93 1009.7
20260502152116 44 135 6.0 7.0 0.03 0.17 0.17 94 1010.1
20260502151117 44 135 5.0 7.0 0.03 0.17 0.17 93 1010.2
20260502150117 44 113 2.0 4.0 0.01 0.15 0.15 93 1010.1
20260502140116 43 135 5.0 6.0 0.01 0.14 0.14 93 1010.4
20260502130137 43 135 4.0 5.0 0.01 0.13 0.13 93 1010.6
20260502123117 43 113 4.0 5.0 0.01 0.13 0.13 94 1010.7
20260502122116 43 135 3.0 5.0 0.01 0.13 0.13 93 1010.7
20260502121117 43 135 3.0 4.0 0.00 0.12 0.12 93 1010.7
20260502120117 42 135 3.0 4.0 0.00 0.12 0.12 94 1010.6
20260502115116 42 135 2.0 4.0 0.00 0.12 0.12 94 1010.7
20260502114116 42 90 2.0 4.0 0.00 0.12 0.12 93 1010.9
20260502113117 43 113 4.0 5.0 0.00 0.12 0.12 94 1010.8
20260502112117 43 113 2.0 4.0 0.00 0.12 0.12 94 1010.9
20260502111137 43 113 3.0 5.0 0.00 0.12 0.12 94 1011.0
20260502110137 43 0.0 1.0 0.00 0.12 0.12 94 1010.8
20260502105117 43 135 1.0 2.0 0.00 0.12 0.12 95 1010.5
20260502104116 42 135 3.0 5.0 0.00 0.12 0.12 95 1010.6
20260502103117 42 135 6.0 6.0 0.00 0.12 0.12 95 1010.6
20260502102116 42 0.0 0.0 0.00 0.12 0.12 95 1010.7
20260502101116 42 0.0 0.0 0.00 0.12 0.12 95 1010.6
20260502100117 42 0.0 0.0 0.00 0.12 0.12 95 1010.7
20260502091136 42 0.0 0.0 0.04 0.12 0.12 94 1010.6
20260502090117 42 0.0 0.0 0.04 0.12 0.12 94 1010.7
20260502071116 42 0.0 1.0 0.05 0.07 0.07 92 1010.7
20260502070117 42 45 1.0 2.0 0.06 0.07 0.07 92 1010.7
20260502065116 42 0.0 1.0 0.07 0.07 0.07 92 1011.2
20260502064116 42 68 2.0 3.0 0.07 0.07 0.07 91 1011.2
20260502063116 42 270 1.0 1.0 0.05 0.05 0.05 92 1011.5
20260502062116 42 0.0 0.0 0.03 0.03 0.03 91 1011.6
20260502061116 42 0.0 0.0 0.02 0.02 0.02 91 1011.5
20260502060116 43 338 1.0 1.0 0.01 0.01 0.01 90 1011.4
20260502055116 43 0.0 0.0 0.00 0.00 0.00 90 1011.4
20260502054116 43 0.0 0.0 0.00 0.00 0.00 88 1011.2
20260502053116 43 0.0 0.0 0.00 0.00 0.00 86 1011.1
20260502052116 43 0.0 0.0 0.00 0.00 0.00 84 1011.1
20260502051156 43 0.0 1.0 0.00 0.00 0.00 83 1011.1
20260502050116 42 0.0 0.0 0.00 0.00 0.00 79 1010.9
20260502045116 42 0.0 0.0 0.00 0.00 0.00 79 1010.7
20260502044117 42 0.0 0.0 0.00 0.00 0.00 78 1010.6
20260502043116 42 0.0 0.0 0.00 0.00 0.00 80 1010.5
20260502042116 42 0.0 0.0 0.00 0.00 0.00 82 1010.4
20260502041116 41 0.0 0.0 0.00 0.00 0.00 82 1010.4
20260502040117 41 0.0 0.0 0.00 0.00 0.00 79 1010.4
20260502035117 41 0.0 0.0 0.00 0.00 0.00 79 1010.3
20260502034117 41 0.0 0.0 0.00 0.00 0.00 82 1010.3
20260502033117 41 0.0 0.0 0.00 0.00 0.00 82 1010.3
20260502032137 41 0.0 0.0 0.00 0.00 0.00 81 1010.1
20260502031117 41 0.0 0.0 0.00 0.00 0.00 81 1010.1
20260502030117 42 0.0 0.0 0.00 0.00 0.00 80 1010.2
20260502025117 42 0.0 0.0 0.00 0.00 0.00 79 1010.2
20260502024117 42 0.0 0.0 0.00 0.00 0.00 82 1010.1
20260502023137 43 0.0 0.0 0.00 0.00 0.00 76 1010.1
20260502022137 43 0.0 0.0 0.00 0.00 0.00 74 1010.2
20260502021117 44 0.0 0.0 0.00 0.00 0.00 73 1010.3
20260502020117 44 0.0 0.0 0.00 0.00 0.00 75 1010.3
20260502015117 44 0.0 0.0 0.00 0.00 0.00 76 1010.3
20260502014117 45 0.0 0.0 0.00 0.00 0.00 75 1010.3
20260502013117 45 0.0 0.0 0.00 0.01 0.00 74 1010.3
20260502012117 45 0.0 0.0 0.00 0.01 0.00 73 1010.2
20260502011117 45 0.0 0.0 0.00 0.01 0.00 70 1010.1
20260502010117 45 0.0 0.0 0.00 0.01 0.00 67 1010.0
20260502005117 45 0.0 0.0 0.00 0.01 0.00 68 1009.8
20260502004117 46 0.0 0.0 0.00 0.02 0.00 69 1009.8
20260502003117 46 0.0 0.0 0.00 0.03 0.00 67 1009.7
20260502002117 47 0.0 0.0 0.00 0.04 0.00 65 1009.6
20260502001117 48 0.0 0.0 0.00 0.04 0.00 62 1009.5
20260502000137 49 0.0 0.0 0.00 0.05 0.00 59 1009.3
20260501235117 50 0.0 0.0 0.00 0.07 0.00 56 1009.2
20260501234117 51 0.0 0.0 0.00 0.07 0.00 50 1009.1
20260501233117 52 0.0 0.0 0.00 0.07 0.00 46 1008.9
20260501232117 52 0.0 0.0 0.00 0.07 0.00 44 1008.8
20260501231117 53 0.0 1.0 0.00 0.07 0.00 43 1008.7
20260501230117 53 0.0 1.0 0.00 0.07 0.00 43 1008.6
20260501225117 53 293 1.0 2.0 0.00 0.07 0.00 42 1008.6
20260501224117 53 248 1.0 3.0 0.00 0.07 0.00 42 1008.5
20260501223118 54 338 1.0 2.0 0.00 0.07 0.00 41 1008.5
20260501222137 54 0 2.0 3.0 0.00 0.07 0.00 42 1008.4
20260501221117 54 23 3.0 5.0 0.00 0.07 0.00 41 1008.3
20260501220117 54 0.0 1.0 0.00 0.07 0.00 42 1008.5
20260501215117 54 0 4.0 8.0 0.00 0.07 0.00 40 1008.5
20260501214117 54 23 4.0 6.0 0.00 0.07 0.00 38 1008.5